Wind_Speed
15 15 15 15 14 14 14 15 15 15 15 15 14 14 13 13 13 13 13 12 11 10 11 11 11 10 9 9 9 10 10 10 9 9 9 7 6 7 6 7 12 14 14 14 15 16 18 19 19 18 16 14 10 6 5 6 8 7 6 5 6 8 8 8 11 10 3 2 5 4 7 11 10 12 17 16 13 11 12 12 11 12 12 17 20 23 26 26
15 15 15 15 14 14 14 14 14 14 15 15 15 14 13 13 13 13 13 12 12 11 11 11 11 11 10 9 9 9 9 9 9 9 9 8 9 9 7 7 9 13 14 12 13 14 15 18 19 18 16 13 11 8 5 5 8 6 4 5 7 6 5 7 10 10 5 1 6 6 9 11 11 13 18 18 15 14 14 14 13 14 18 22 23 25 26 25
16 15 14 14 14 14 14 14 14 14 14 15 15 14 13 13 13 13 13 13 12 11 11 11 11 11 10 9 9 9 9 8 9 9 9 10 10 9 8 7 7 11 14 13 14 15 15 17 18 17 15 14 12 10 8 7 7 4 2 4 8 6 3 4 9 10 7 2 5 8 10 12 13 14 16 18 17 16 16 15 16 20 24 25 26 27 26 25
16 15 14 14 13 13 13 13 14 13 13 14 14 14 13 13 13 14 13 12 12 11 11 11 11 11 10 9 9 9 8 7 9 10 11 12 11 11 9 8 8 11 15 15 15 17 19 20 20 18 16 17 15 12 11 8 6 2 2 5 8 6 3 3 7 10 7 2 4 7 9 13 12 12 15 18 19 19 17 17 18 20 23 25 27 28 26 25
15 15 14 13 13 12 13 13 13 13 13 13 13 13 13 13 13 13 13 13 12 12 11 11 11 11 10 9 9 9 7 6 9 10 10 11 12 11 9 9 9 11 15 17 17 18 19 20 22 21 20 20 18 15 11 9 6 3 3 7 6 6 3 3 7 8 6 3 4 8 9 13 11 11 16 18 19 17 15 18 18 17 18 19 23 27 26 25
14 14 13 13 12 12 12 12 12 13 13 13 12 12 13 13 13 12 13 12 12 12 11 11 11 11 10 9 9 9 8 7 8 8 8 10 11 12 11 10 10 11 14 17 19 18 18 19 22 23 22 21 18 15 13 11 6 6 3 5 6 5 5 7 8 6 4 4 2 7 8 10 10 11 15 16 15 16 16 18 17 15 16 15 18 24 25 24
13 13 13 12 12 12 12 12 12 12 12 12 12 12 12 12 12 12 12 12 11 12 11 11 11 11 10 9 9 9 9 9 9 6 7 10 11 11 11 11 12 11 10 14 18 18 19 20 20 21 23 22 18 16 14 12 9 10 6 6 10 8 7 10 9 5 4 4 3 5 9 9 8 10 14 14 13 15 16 15 15 14 16 16 18 22 24 22
13 13 12 12 12 12 12 12 12 12 12 12 11 11 11 11 12 12 11 11 11 11 11 11 11 10 10 8 9 10 11 11 12 9 8 9 10 11 12 13 13 11 9 11 15 17 19 20 20 21 22 20 17 15 11 8 9 11 7 5 11 12 9 11 10 5 4 4 2 5 9 9 9 10 13 15 14 13 13 13 15 15 17 19 18 22 25 23
15 14 13 13 13 12 13 13 13 12 13 12 11 11 11 11 11 11 11 11 11 11 11 10 10 10 9 8 10 11 11 11 12 12 10 10 10 11 12 13 13 12 10 11 14 18 18 17 20 20 18 16 14 12 8 6 9 9 8 7 11 16 15 13 13 9 4 3 0 5 9 9 10 11 12 15 14 13 13 12 16 17 18 20 20 22 25 23
15 15 14 14 14 14 14 13 13 12 12 12 12 11 10 10 10 10 10 10 10 11 10 10 9 9 9 9 9 10 11 10 9 11 11 11 11 10 10 11 13 13 12 12 15 17 15 14 17 17 14 12 12 10 8 9 10 10 11 8 9 13 16 17 15 11 6 2 1 5 7 7 10 12 14 16 14 13 14 13 16 20 19 20 22 23 25 23
16 15 15 15 15 15 15 14 13 12 12 12 11 11 10 10 10 10 9 9 9 10 10 10 9 8 8 9 9 9 10 8 8 9 9 11 13 11 9 10 12 14 13 13 14 13 14 16 16 18 15 12 10 9 9 9 12 13 12 9 8 7 12 18 16 11 8 5 3 6 7 6 8 12 15 15 13 13 15 14 15 21 21 20 23 24 25 25
16 15 14 14 14 15 15 15 14 12 12 11 11 10 10 10 10 10 9 9 9 9 9 9 8 8 8 9 9 10 10 9 8 7 8 9 11 11 11 10 12 14 14 13 14 15 18 19 18 19 16 13 11 8 9 11 13 13 10 9 8 6 10 15 14 13 10 8 6 7 8 6 5 11 14 12 12 14 16 14 15 23 23 20 23 24 24 25
14 14 13 13 14 14 15 15 14 13 11 11 11 10 9 10 10 10 9 8 8 8 8 8 8 7 6 7 8 9 11 11 9 9 7 7 9 11 12 12 12 14 15 13 16 18 21 22 20 19 15 13 13 11 12 12 12 13 10 10 8 7 11 13 13 14 12 11 11 8 7 6 5 10 13 11 12 15 17 16 18 25 23 20 23 24 23 24
14 13 13 13 14 14 15 15 14 13 12 10 10 9 9 9 9 9 9 8 8 8 8 8 7 6 5 6 7 7 9 9 8 9 8 7 8 10 12 14 13 15 16 15 20 22 24 25 21 21 19 15 15 14 14 12 11 12 12 13 10 9 11 12 15 15 15 14 13 10 7 6 6 9 11 11 13 16 17 17 20 23 20 21 23 23 24 24
15 14 13 13 14 14 15 15 14 14 12 10 9 9 9 9 9 9 9 8 8 8 8 6 5 4 3 6 7 6 6 4 4 6 8 7 9 11 13 15 13 16 17 18 23 25 26 26 23 23 23 19 17 16 16 14 13 11 11 13 12 13 10 10 15 16 17 17 15 12 9 8 6 7 10 11 13 16 17 18 20 21 20 21 22 22 25 24
15 15 14 13 14 14 14 14 13 13 12 10 9 8 9 10 10 10 9 8 8 8 7 4 4 4 3 3 5 5 2 1 2 5 6 8 10 13 15 16 14 17 20 21 24 26 27 27 25 25 25 22 19 17 16 16 15 12 11 11 13 16 13 14 18 20 19 18 19 17 11 11 9 9 12 11 12 15 17 20 21 21 21 21 21 22 25 24
16 15 14 14 13 13 13 13 12 12 11 10 9 8 9 10 10 10 10 9 8 8 6 4 5 6 5 4 3 3 2 4 2 1 4 7 10 13 16 17 15 16 21 24 25 27 27 26 24 24 25 24 21 17 15 16 19 16 12 12 15 17 16 18 20 21 23 24 24 22 18 17 13 11 14 13 13 15 17 20 20 21 22 21 21 23 25 24
16 15 14 14 13 12 12 12 11 11 10 9 8 7 7 9 11 11 10 9 9 8 7 7 8 7 5 5 3 1 4 4 2 1 2 6 9 12 14 16 15 16 22 26 27 27 26 24 21 20 23 25 24 22 18 18 21 18 15 15 15 16 19 21 20 18 23 26 27 26 24 23 18 13 14 14 15 16 17 19 19 21 23 22 23 24 25 23
16 15 14 14 13 11 11 12 11 11 10 9 8 5 5 9 10 11 11 10 10 9 8 10 10 10 9 9 5 2 2 2 2 3 2 6 10 10 11 13 14 15 21 27 27 26 24 21 19 21 23 26 28 26 22 18 19 18 16 15 13 14 18 22 20 17 20 25 29 31 29 26 22 18 15 16 18 18 19 20 21 22 23 23 23 24 25 24
16 15 14 14 13 11 11 12 11 11 10 10 9 6 5 8 10 11 12 11 12 12 10 10 11 13 12 11 6 4 4 2 2 5 5 7 12 13 10 10 13 14 18 23 24 24 22 20 21 23 23 24 25 25 23 19 17 17 16 16 17 19 22 21 18 16 18 25 30 33 34 31 27 22 17 18 20 21 23 23 23 24 24 24 24 23 23 22
16 15 14 13 14 12 11 12 12 11 11 10 10 8 7 7 9 10 10 12 14 14 11 9 10 14 12 10 7 6 6 5 6 7 6 5 10 14 11 11 14 14 15 18 18 18 20 21 22 21 18 18 20 21 21 19 17 17 16 17 18 21 23 21 16 11 12 24 32 33 36 36 30 24 19 21 23 23 25 25 24 25 25 24 23 22 21 21
16 16 14 13 14 13 12 12 13 12 11 11 9 9 8 7 7 8 8 10 14 14 12 10 11 12 11 9 8 7 7 7 9 6 5 4 7 9 12 14 14 13 14 17 16 14 17 20 20 17 15 15 16 17 17 16 16 16 16 16 18 19 19 19 17 9 7 19 34 37 38 39 34 27 22 20 22 22 21 22 22 23 25 24 24 23 21 22
16 17 16 13 13 14 13 12 13 12 12 12 10 10 10 7 6 7 8 8 12 13 12 10 11 10 9 8 8 7 8 9 8 6 6 5 6 7 12 13 10 10 13 15 17 17 16 16 14 12 12 14 15 17 17 17 17 17 17 18 20 18 16 19 17 10 8 12 25 41 41 38 34 27 24 20 19 20 19 20 22 22 22 20 21 23 23 24
16 17 17 15 13 14 14 12 12 12 12 13 14 12 8 6 7 7 8 8 8 9 8 8 10 11 9 7 8 8 10 9 5 7 7 3 7 9 10 10 7 10 11 10 13 17 16 11 9 8 10 12 14 16 18 19 20 20 20 21 22 18 17 21 16 13 16 14 14 39 35 30 34 30 28 25 21 22 20 22 27 26 24 21 20 23 23 24
17 17 17 16 13 12 14 13 12 12 12 14 14 11 4 3 5 5 6 6 4 5 7 8 10 11 9 7 9 9 11 8 2 7 7 4 9 10 9 11 10 10 10 8 9 12 13 9 8 9 11 13 15 16 16 17 19 19 21 22 21 17 14 16 13 15 18 10 11 36 25 18 34 35 31 30 27 27 25 25 29 29 28 27 26 26 25 25
17 17 18 17 13 11 13 12 12 13 14 13 11 8 4 2 3 2 3 4 1 4 8 9 7 8 7 6 8 11 12 8 5 8 7 4 8 10 10 12 12 10 9 9 12 13 11 8 9 12 12 14 16 16 15 16 20 20 19 19 17 15 14 15 13 14 15 4 12 31 20 11 28 36 34 32 30 30 29 28 29 28 30 30 30 29 28 28
19 18 18 18 14 11 11 11 11 13 14 11 8 7 5 4 3 2 1 1 1 5 9 9 6 6 8 6 9 13 9 8 9 7 6 4 5 10 12 13 13 12 10 9 11 12 10 8 9 11 14 17 19 18 13 16 22 21 17 16 15 16 15 16 16 16 19 13 7 18 15 11 22 34 37 35 34 33 32 33 32 29 30 30 30 30 29 29
20 20 19 18 16 13 11 10 9 11 12 8 5 5 5 6 4 2 2 2 3 7 10 9 8 8 7 4 8 11 6 8 9 6 6 2 3 6 10 12 14 14 13 9 8 12 12 10 9 10 15 17 19 19 13 15 22 20 15 15 15 16 14 13 13 15 16 17 15 11 11 10 15 27 36 37 37 37 34 34 34 31 30 30 30 30 29 30
22 21 20 18 16 13 10 8 7 8 7 5 3 4 5 5 4 3 3 3 5 8 8 8 8 5 3 3 6 8 5 6 6 3 3 1 3 1 4 10 16 16 13 9 10 16 15 11 8 8 11 11 12 16 15 16 19 16 13 16 17 15 14 12 10 13 12 9 15 12 6 7 6 16 33 39 40 40 35 33 32 29 28 30 30 29 29 30
23 22 21 19 15 12 9 5 5 5 3 3 4 4 5 5 5 2 3 5 6 6 5 6 6 2 3 6 6 7 7 5 4 2 2 2 2 3 2 5 11 14 15 13 15 19 15 12 9 7 8 7 7 13 17 16 16 14 13 16 18 16 16 13 11 13 10 6 11 7 1 4 3 9 28 38 37 36 33 33 33 29 28 30 31 31 30 29
23 22 21 18 13 10 7 3 3 3 2 3 4 5 7 7 4 1 3 6 6 5 5 7 5 1 3 5 4 6 6 5 4 2 1 1 2 4 5 2 4 7 9 11 15 19 18 14 10 8 6 3 6 14 16 16 15 15 14 14 15 15 14 13 12 11 5 5 10 4 2 3 4 8 19 25 25 26 28 33 33 28 27 30 31 32 31 29
23 21 20 16 12 8 4 2 2 3 4 5 6 7 9 7 4 6 4 4 5 4 6 6 4 3 2 2 3 6 8 8 5 2 3 1 3 4 4 4 4 4 1 2 8 16 20 17 12 10 7 2 6 11 13 16 16 14 14 13 9 6 4 6 7 5 4 7 12 8 5 6 7 10 14 15 19 24 28 30 28 24 23 27 30 31 32 30
21 19 17 14 10 6 3 1 3 5 7 9 10 9 8 6 6 10 11 7 6 5 5 7 7 6 4 5 9 9 8 8 4 4 4 3 5 5 2 1 2 2 0 2 1 6 12 13 10 9 8 5 7 7 8 13 15 13 14 14 9 2 2 3 3 1 4 10 15 14 9 7 9 11 13 15 19 21 22 23 24 24 24 24 27 28 30 31
19 16 12 10 8 6 3 3 5 8 10 11 10 10 11 10 6 7 13 15 11 8 7 9 6 4 3 7 9 6 6 7 4 4 3 3 8 7 3 3 3 2 2 1 2 3 4 6 5 6 5 5 9 9 6 9 13 13 12 11 11 7 3 2 2 2 3 7 11 11 5 3 5 9 12 16 17 18 20 21 23 23 20 23 28 29 30 31
16 13 10 9 8 6 4 6 8 10 12 11 10 14 16 12 8 7 11 13 10 8 8 7 4 1 2 4 4 3 4 6 4 4 5 6 11 10 7 4 1 1 1 1 1 3 4 5 4 3 1 1 7 13 10 8 10 12 11 11 12 10 5 3 4 4 4 3 6 9 6 5 7 11 15 18 18 20 22 24 26 25 21 23 29 33 32 31
13 12 10 9 8 7 8 10 12 13 12 11 14 19 18 13 11 8 7 8 7 7 8 7 5 5 3 6 7 2 3 6 6 8 9 8 13 14 11 10 9 6 4 3 3 4 5 6 7 5 4 2 5 13 12 8 7 9 11 14 14 12 12 9 8 10 7 3 4 8 10 11 10 9 12 18 21 22 22 25 26 27 26 25 25 29 32 32
10 11 11 11 12 13 14 14 14 14 14 16 19 17 15 13 11 7 3 3 5 6 8 10 11 13 10 10 10 6 6 8 6 9 9 6 9 14 11 10 11 9 6 6 4 5 8 12 11 7 8 5 1 10 16 13 9 3 2 10 13 13 16 12 5 4 3 1 3 8 10 9 9 9 8 12 20 22 20 24 25 24 27 28 26 25 27 31
9 12 13 15 19 19 16 13 13 14 16 19 18 15 15 15 12 8 4 2 2 2 7 12 12 12 13 14 12 9 9 10 8 10 12 8 9 13 11 9 9 7 5 3 2 3 9 13 14 12 10 4 4 6 16 15 13 4 4 4 7 7 11 9 4 2 1 1 2 6 8 8 10 14 13 12 15 18 20 24 28 29 27 28 29 26 25 28
10 12 16 19 20 18 14 12 12 14 17 18 16 14 15 16 12 11 9 3 1 2 8 13 9 8 11 15 16 15 13 15 13 11 11 9 9 10 9 8 7 6 6 5 3 3 6 9 11 14 13 5 5 4 3 2 9 7 2 1 2 1 6 4 4 5 3 2 2 1 5 4 4 11 13 15 15 13 16 19 23 31 33 29 28 25 24 27
13 17 19 18 17 15 13 12 12 14 16 15 14 11 10 13 11 9 9 8 7 8 9 8 5 6 9 12 17 19 19 19 16 13 13 12 9 7 8 9 6 5 5 5 5 4 6 8 13 17 14 8 5 6 11 11 5 9 14 14 14 9 3 2 5 7 4 3 3 2 4 4 20 23 18 17 17 14 16 18 20 30 36 31 26 23 22 25
17 20 19 17 15 15 14 12 13 14 12 8 9 8 7 9 9 7 7 9 11 11 10 8 7 9 9 8 13 19 21 20 16 15 17 15 12 11 11 12 8 6 6 7 6 5 6 8 16 22 18 16 13 9 10 12 10 12 17 19 19 14 7 2 4 7 6 7 6 5 6 8 24 21 18 23 23 16 16 18 22 32 36 31 27 22 20 22
19 18 16 14 13 13 12 11 11 11 8 6 7 7 6 5 4 4 6 7 9 11 10 11 12 11 9 8 9 15 20 21 17 16 17 16 17 16 11 10 10 9 8 7 6 7 8 10 16 24 25 25 21 18 17 14 7 3 9 14 14 12 13 10 3 4 4 7 10 9 8 7 19 16 15 23 27 19 15 14 19 29 31 27 25 22 21 21
17 15 12 10 11 10 10 12 12 11 10 8 7 9 8 5 4 5 7 7 6 8 8 10 13 11 9 7 6 11 17 20 18 17 15 13 14 13 10 10 12 13 10 8 7 7 8 10 16 24 29 32 26 17 17 14 6 1 4 10 11 11 17 12 5 8 8 2 1 3 8 6 14 17 15 18 24 21 12 9 13 21 24 27 27 24 22 22
14 12 9 8 8 7 8 12 13 15 14 9 9 12 11 7 6 6 5 4 5 6 6 8 11 9 8 4 6 7 10 12 14 12 9 11 10 7 6 9 12 14 12 11 10 9 8 9 13 17 18 23 18 5 6 12 7 5 8 11 12 15 16 8 2 5 5 6 10 5 6 3 8 17 17 16 21 22 16 9 6 16 23 29 31 28 25 21
11 11 9 7 5 4 8 9 7 10 11 9 11 14 11 9 8 7 7 6 7 6 5 6 7 4 5 3 4 4 4 6 7 6 4 6 8 7 8 9 10 11 11 10 11 12 10 9 11 8 4 9 10 6 9 15 16 16 15 15 14 14 15 10 8 8 6 9 14 8 7 10 9 13 17 18 20 21 18 12 1 13 23 28 30 32 31 27
8 10 9 7 5 5 7 6 3 5 5 5 10 12 10 10 9 6 6 7 7 5 4 4 2 0 1 2 3 5 4 4 2 2 1 4 7 8 10 11 11 10 9 9 11 12 11 11 12 10 9 12 15 17 19 21 23 24 20 19 17 13 11 11 9 8 10 17 17 11 11 17 15 13 20 21 21 23 18 13 13 5 16 27 27 30 35 35
7 10 8 6 5 5 4 3 2 3 5 4 6 9 7 6 6 4 6 8 6 4 3 2 1 1 2 2 2 4 4 4 6 5 4 6 6 6 9 10 9 9 9 11 12 12 12 11 11 11 13 15 17 19 18 19 23 25 22 21 20 17 13 12 9 8 12 17 14 12 12 20 19 18 20 19 22 26 22 11 16 18 7 17 26 30 35 37
5 8 6 4 4 5 4 4 4 4 4 4 6 7 6 5 6 8 9 8 6 4 4 4 4 5 4 5 4 3 1 2 4 4 5 5 5 4 5 7 9 9 8 9 10 10 9 9 10 12 13 14 16 16 14 17 23 24 22 20 20 21 19 15 12 11 12 14 15 16 19 20 18 17 17 17 18 22 22 14 7 12 19 12 20 30 35 38
3 6 5 2 4 4 3 2 1 4 5 5 8 8 6 5 6 8 9 8 7 6 7 9 10 8 7 7 5 2 0 1 1 3 5 6 6 7 7 8 9 10 9 8 7 6 6 6 9 14 16 16 16 14 13 15 21 25 23 18 17 20 21 19 18 16 15 17 18 17 18 16 11 11 13 14 13 15 17 17 13 3 17 21 15 23 33 39
5 5 3 0 3 6 3 1 1 4 6 6 6 5 2 2 4 5 5 6 7 7 8 10 11 9 7 6 5 2 1 1 0 1 4 5 5 7 8 8 9 10 11 11 8 7 7 7 9 13 17 18 16 15 16 16 18 25 29 23 17 16 18 19 19 18 19 21 19 18 21 18 9 5 11 13 10 11 15 16 13 3 8 16 20 19 22 32
9 6 3 3 6 8 4 2 4 4 4 4 2 2 3 1 2 4 4 7 8 5 5 8 8 8 8 7 5 4 4 4 4 5 5 6 7 8 8 9 10 10 10 10 10 10 10 9 10 12 15 17 16 14 15 18 20 25 31 29 21 13 12 14 14 14 16 19 20 20 20 19 12 9 12 17 15 14 17 18 16 9 5 4 14 18 17 18
13 9 5 5 8 9 6 6 5 4 5 5 2 1 3 3 5 6 7 8 8 5 4 6 5 6 8 7 6 8 10 8 7 8 7 6 6 5 4 6 8 10 10 10 11 12 10 10 12 12 13 17 16 14 16 17 17 22 27 24 18 12 10 13 13 9 8 11 15 14 13 16 18 16 16 19 20 18 19 20 20 16 10 4 2 8 12 13
Wind_Direction
317 317 316 315 314 314 313 312 311 310 309 307 305 302 299 296 293 291 288 284 279 273 269 264 263 262 258 255 255 256 250 244 236 232 232 230 232 229 205 191 198 199 199 199 198 194 190 188 189 191 187 187 193 205 214 153 119 99 82 60 48 37 30 19 19 23 12 142 153 156 151 156 159 163 166 173 177 169 163 152 158 177 187 193 184 167 162 164
315 314 313 313 312 311 310 310 310 310 309 308 306 304 301 296 291 289 287 286 283 278 272 265 261 260 257 252 250 252 250 245 236 229 226 222 225 226 209 194 197 198 196 195 194 190 189 188 188 191 187 183 190 204 204 134 113 94 67 49 48 37 23 15 18 23 10 104 153 150 139 150 163 166 169 174 173 172 173 166 166 176 179 180 176 169 167 167
313 313 312 311 310 309 308 307 306 307 308 308 307 305 303 298 291 288 286 286 285 280 275 268 262 258 256 253 246 246 245 242 237 227 220 220 221 223 213 194 189 191 190 186 182 179 181 184 185 186 183 180 186 189 178 144 125 103 26 29 46 38 13 21 21 19 14 53 156 160 143 144 160 173 174 172 171 175 181 177 172 175 176 175 173 173 171 172
314 313 313 311 311 309 307 306 305 304 305 305 305 305 303 300 293 288 285 285 284 281 277 270 265 260 255 252 247 243 238 234 234 227 217 217 217 218 215 196 187 186 188 186 180 178 179 180 176 175 177 176 176 177 173 149 132 133 29 40 32 12 6 29 7 10 16 36 173 176 148 141 157 175 174 172 176 179 183 181 176 176 174 173 175 176 174 176
314 314 314 313 312 311 309 307 305 304 304 304 304 304 303 300 295 290 286 283 282 281 277 271 268 262 256 252 248 240 230 220 229 231 218 213 212 212 210 199 192 187 189 188 185 185 185 182 177 172 173 176 174 169 159 126 131 187 41 32 2 342 330 318 336 2 21 25 171 182 156 146 154 168 174 178 183 181 176 176 176 180 176 171 177 179 178 182
312 312 313 313 313 313 312 311 310 307 305 303 301 301 301 299 296 293 289 284 281 279 276 273 268 263 258 250 246 240 225 204 214 229 221 212 208 205 203 196 195 196 194 189 191 191 185 189 190 176 172 180 176 159 144 128 163 230 310 331 306 317 296 278 305 347 16 17 121 183 167 153 158 170 178 181 184 175 168 174 177 184 183 177 183 183 182 187
307 307 308 309 311 313 314 314 315 313 310 306 300 297 296 296 295 293 291 288 283 278 275 272 268 264 258 251 247 240 224 199 190 199 205 206 202 201 199 192 196 199 194 192 196 194 185 192 196 179 174 180 168 148 148 152 194 241 269 275 271 288 282 265 282 323 352 9 55 163 164 160 171 178 177 175 180 173 169 179 177 180 186 184 190 188 186 189
304 302 302 303 305 308 311 312 314 314 313 310 304 296 290 291 292 292 291 289 286 281 274 270 268 265 258 252 246 240 230 207 189 184 181 184 189 195 197 193 196 192 188 192 193 196 192 192 194 182 171 167 157 144 146 162 200 231 263 272 266 271 264 262 267 282 329 349 76 149 163 172 177 173 173 174 179 179 180 185 177 181 187 186 193 189 188 190
307 301 298 298 299 302 305 307 310 310 310 309 308 299 287 282 285 289 290 289 287 284 278 270 266 264 259 252 248 247 243 222 204 200 194 186 180 185 194 193 191 184 186 185 184 196 195 190 193 181 157 150 159 157 156 209 215 226 278 297 268 260 257 267 265 253 280 317 102 151 163 175 179 170 172 180 181 181 189 186 176 183 186 187 193 190 189 191
312 304 299 296 297 299 301 303 305 305 305 305 306 301 288 276 276 283 288 289 287 285 282 274 265 260 256 249 249 250 246 236 218 206 202 209 202 185 189 191 187 182 183 185 187 194 188 180 181 170 158 162 183 188 190 234 241 243 275 287 262 257 258 262 256 243 240 245 162 155 164 172 181 176 173 184 185 181 190 187 178 184 186 187 192 191 191 194
317 310 303 298 297 297 298 299 301 301 301 300 301 299 290 275 268 272 282 287 286 285 283 277 267 257 250 244 243 243 243 243 233 206 181 206 218 202 195 190 184 181 180 186 188 181 169 164 162 164 175 183 197 213 210 236 254 252 260 253 241 260 259 248 238 234 239 231 192 177 188 187 183 177 173 183 186 185 192 190 185 186 186 187 191 192 193 196
321 316 310 304 300 297 297 297 298 299 298 297 295 292 288 276 264 264 275 283 283 284 282 277 268 253 244 242 241 239 242 242 240 226 180 190 216 210 203 193 183 182 180 181 180 168 159 159 163 170 176 177 190 216 216 229 244 243 245 231 227 248 246 237 231 239 246 239 230 210 207 207 184 169 170 181 183 186 193 195 192 186 185 184 189 195 195 198
324 321 316 311 306 301 299 299 300 300 297 296 291 285 281 274 261 255 266 277 278 279 279 275 266 255 244 239 239 236 241 240 240 247 225 202 209 206 200 194 185 180 179 176 172 162 157 163 175 177 174 180 195 214 210 213 229 230 228 219 217 223 230 228 226 240 241 239 252 244 215 208 184 164 167 181 189 193 196 198 191 183 184 184 189 197 197 199
324 322 319 315 310 306 304 304 305 304 301 299 291 279 271 266 255 248 257 269 273 273 275 273 265 259 234 218 229 232 234 238 239 247 241 219 207 202 195 191 186 179 176 173 169 165 165 172 181 181 182 194 208 218 209 198 210 221 217 212 213 219 225 221 217 228 231 235 251 250 232 217 194 175 172 180 196 202 200 197 189 183 186 188 191 198 198 201
325 323 321 317 311 309 309 308 309 308 307 303 293 278 264 256 246 241 249 258 262 266 267 267 258 243 207 208 225 232 228 224 222 230 231 219 201 194 187 182 185 180 172 172 172 169 174 180 186 187 188 198 210 217 214 203 200 209 215 209 215 225 223 216 218 227 230 231 233 231 229 219 200 190 186 183 197 204 200 196 192 191 192 189 192 198 199 201
327 325 323 319 314 313 312 311 312 312 311 309 298 278 258 249 241 236 242 247 248 253 253 253 233 186 142 169 203 226 234 113 157 197 205 202 192 185 177 173 182 182 169 172 175 174 181 188 192 191 189 197 208 211 215 215 204 202 214 207 211 223 220 212 219 227 234 235 229 223 217 215 209 197 195 190 197 202 199 199 198 196 194 191 194 199 200 202
328 326 323 320 318 316 314 312 313 313 311 310 300 284 264 250 243 237 238 239 237 240 230 201 177 164 137 118 172 220 102 80 81 167 182 188 186 183 176 168 173 180 170 171 177 179 187 193 196 196 193 196 203 206 214 219 210 202 206 208 205 214 216 215 219 227 234 237 235 226 218 230 237 210 198 194 199 204 201 206 206 199 197 196 198 201 202 204
328 326 324 321 319 317 314 312 313 312 309 306 300 294 275 253 244 238 237 235 231 230 214 188 169 159 144 108 88 111 96 78 60 68 194 184 182 187 184 171 166 176 174 173 179 183 189 196 199 201 200 200 199 201 209 211 208 200 196 204 206 211 216 218 223 227 230 233 236 230 219 228 236 214 202 198 203 207 205 210 209 202 201 200 202 202 201 204
328 327 325 322 320 317 314 312 311 310 305 302 298 289 266 251 244 237 235 231 220 213 199 187 174 160 148 127 114 170 145 73 89 113 161 171 173 184 188 178 171 179 181 180 185 187 189 194 198 203 206 206 202 202 206 205 205 205 206 219 232 242 239 234 239 244 240 229 227 229 222 219 219 209 204 200 202 207 205 207 206 202 204 204 205 206 203 203
327 327 326 322 318 316 313 312 310 307 305 304 300 286 254 241 240 237 234 229 218 209 201 198 189 178 166 147 148 198 195 228 174 131 130 148 167 182 191 187 175 182 188 186 189 191 193 198 201 207 210 210 208 206 207 205 204 208 220 236 249 262 260 254 255 263 260 236 225 228 224 216 215 215 209 197 196 203 204 203 204 203 205 208 208 209 207 206
326 324 324 321 316 314 314 312 311 309 309 309 307 294 262 232 238 241 233 227 218 213 216 221 212 197 181 155 158 200 205 211 183 135 100 115 164 181 188 190 180 182 186 180 183 191 199 207 208 210 213 214 213 211 212 215 217 218 225 240 253 259 259 257 252 259 264 236 224 223 218 213 217 220 213 200 197 203 207 204 205 207 208 210 208 206 208 208
326 322 320 320 315 312 313 313 313 311 310 310 308 297 271 241 239 240 233 222 211 217 226 231 233 213 190 166 164 186 182 175 171 139 79 107 168 174 169 181 184 180 180 173 177 195 209 217 215 212 213 214 213 208 209 218 227 232 234 247 257 254 259 260 238 235 267 231 218 213 212 214 219 221 214 210 211 211 212 210 210 213 214 214 209 204 206 207
329 322 319 320 316 311 311 312 310 307 307 304 298 291 275 250 243 242 242 226 210 224 232 232 236 207 183 187 183 188 177 168 177 154 106 124 168 154 152 172 183 177 184 184 187 203 219 220 211 210 215 216 213 205 205 217 229 238 240 249 254 250 266 265 236 231 292 274 225 210 208 210 211 213 214 221 228 218 213 215 216 221 224 223 215 209 209 209
333 325 320 321 319 311 307 307 304 300 296 293 296 299 283 240 236 242 247 242 221 226 222 215 215 189 179 187 171 179 179 171 183 159 138 176 192 168 155 166 178 180 191 198 196 209 220 204 180 201 220 216 214 207 206 219 228 235 240 246 251 251 265 269 263 274 296 318 230 202 199 202 201 204 211 215 221 217 213 212 212 219 226 229 223 215 213 214
338 331 323 322 323 313 304 303 298 291 285 288 300 312 305 225 239 242 246 253 232 210 192 184 194 185 177 167 157 168 166 154 174 167 160 207 199 187 178 175 186 195 201 212 216 225 225 201 189 222 230 219 213 209 208 218 228 236 238 238 244 252 268 274 288 298 297 331 186 190 187 194 201 204 208 209 212 212 211 211 211 214 219 223 223 218 216 217
341 334 327 325 330 319 304 300 293 287 286 289 305 323 328 269 256 233 243 263 228 173 167 162 175 180 169 167 177 174 161 152 167 172 175 206 202 199 193 185 190 195 202 222 234 241 241 227 222 228 233 229 220 215 209 214 231 241 232 226 236 250 269 278 287 294 287 316 167 189 193 194 202 205 208 210 214 211 209 211 211 213 216 219 220 219 218 216
340 336 331 327 331 325 304 297 289 284 287 291 305 317 305 263 234 165 204 300 69 147 156 154 150 151 157 176 185 174 170 173 167 174 190 205 227 216 206 198 195 196 203 226 233 229 228 230 232 229 234 237 230 225 211 205 228 238 219 212 236 252 266 281 283 284 278 275 218 194 196 198 205 211 212 212 214 211 210 212 211 212 215 216 216 216 216 216
339 336 334 329 328 326 310 299 287 282 290 298 293 275 255 235 212 144 128 68 89 139 152 147 125 121 133 153 174 168 160 166 167 190 198 200 296 233 215 204 199 205 212 234 234 200 196 213 227 233 237 242 239 236 226 205 220 229 210 213 243 253 266 288 286 288 290 278 260 227 198 195 211 221 216 210 211 211 212 215 212 213 215 214 214 213 212 214
336 335 335 331 327 322 315 304 285 280 288 290 252 224 219 207 174 128 103 97 111 133 145 147 132 117 112 122 171 168 130 129 153 175 165 38 358 178 208 204 206 217 218 239 235 199 200 220 223 226 232 245 251 243 237 222 220 224 217 229 244 245 258 279 281 292 310 283 257 255 224 200 225 227 211 204 209 214 219 222 217 216 218 215 214 212 211 213
334 333 334 331 325 319 317 304 270 268 257 226 217 197 177 158 150 131 73 101 127 130 137 155 153 116 91 103 125 138 116 109 135 141 97 37 48 79 33 195 210 231 231 240 232 208 214 234 234 231 219 229 242 229 230 230 228 232 231 238 243 243 254 262 264 284 304 279 252 264 266 216 235 222 208 206 212 217 223 227 222 219 220 217 214 212 211 212
334 333 332 329 324 317 314 288 246 235 171 185 189 163 150 138 131 67 79 112 122 106 120 146 153 118 77 79 90 112 119 134 147 173 196 268 348 3 342 290 235 253 241 239 234 224 224 230 233 224 199 211 236 221 223 226 229 236 237 240 243 245 252 256 260 271 278 269 259 255 18 270 236 219 217 218 222 220 224 229 226 225 221 216 215 213 212 214
336 334 331 327 322 319 309 246 199 174 160 167 154 140 145 134 65 25 43 134 137 100 127 134 119 125 91 69 129 117 122 142 144 130 159 169 22 27 347 304 282 279 249 196 234 234 231 234 238 220 203 252 247 226 220 219 221 224 222 224 230 239 244 246 259 253 225 263 267 262 297 290 258 244 237 231 227 224 229 234 236 243 238 222 216 215 214 215
339 335 332 329 328 331 330 155 143 146 147 146 138 128 127 110 57 34 42 74 84 67 126 135 114 128 114 105 130 123 121 143 129 89 113 93 84 103 146 230 254 266 93 79 325 254 239 239 235 212 208 223 222 224 227 221 216 210 216 222 219 189 122 215 255 274 253 271 274 277 287 282 267 261 246 235 230 229 236 239 244 258 261 245 229 220 217 217
343 343 341 345 357 7 23 93 112 126 132 134 130 109 90 74 57 52 56 68 74 64 106 137 132 140 118 104 126 138 138 144 129 87 82 83 99 107 132 160 187 210 179 205 12 3 264 228 183 165 175 199 207 205 212 222 213 209 220 228 220 203 158 190 212 162 213 269 282 283 277 234 253 257 247 247 246 241 243 248 252 258 263 257 243 227 219 219
352 360 357 2 21 33 56 89 101 112 124 129 105 79 74 63 47 52 54 63 81 79 94 131 153 178 156 120 134 187 160 144 143 94 68 73 86 69 39 56 71 281 199 237 337 341 278 227 167 146 112 296 218 205 210 235 221 212 225 237 230 220 211 232 257 253 251 291 293 289 287 267 275 271 255 255 259 254 249 250 252 252 254 255 244 231 226 224
8 17 17 21 41 62 77 89 105 113 115 109 83 69 69 64 46 39 38 44 58 54 58 85 78 45 74 119 112 110 124 131 130 101 94 94 85 68 44 47 46 39 60 53 21 360 303 242 205 195 179 151 209 204 214 248 230 207 223 233 235 236 239 249 272 275 271 286 285 282 285 279 282 281 250 238 245 254 255 251 247 247 250 250 243 235 233 231
32 35 42 59 76 88 90 96 115 117 98 83 78 70 65 61 44 21 350 360 23 25 39 58 55 45 61 99 96 80 105 123 114 89 103 124 84 69 62 60 51 45 60 56 35 6 316 270 249 228 177 140 76 207 205 216 216 202 260 230 222 230 235 234 255 289 267 167 243 248 259 271 270 269 261 242 236 236 245 250 247 244 242 241 240 236 232 233
50 44 58 79 85 91 95 101 109 100 81 76 79 74 57 50 46 43 32 312 302 352 44 51 51 54 68 81 81 85 102 99 77 77 97 115 90 70 61 60 53 36 29 17 15 353 316 286 266 249 209 174 16 202 199 204 197 173 359 252 210 220 232 226 220 255 182 148 230 241 249 256 259 270 296 306 272 249 251 255 249 244 237 230 232 234 230 229
51 60 73 83 83 82 86 91 86 73 70 75 78 74 58 52 61 72 70 68 131 103 58 48 51 73 74 71 73 80 80 73 77 88 92 95 91 73 50 49 52 25 353 330 333 321 314 306 274 248 230 257 2 75 98 155 178 171 338 289 94 293 253 239 208 204 173 182 202 249 258 255 354 351 355 355 336 308 286 276 259 250 245 234 229 232 231 226
70 81 78 77 73 65 66 77 75 68 76 79 71 69 66 61 69 78 76 78 82 80 62 45 53 83 81 78 75 73 71 72 80 86 84 83 86 72 41 34 26 358 339 327 337 308 290 305 282 254 234 251 310 22 22 8 10 28 30 40 39 18 303 257 227 214 183 175 156 147 238 71 54 42 36 20 354 322 289 280 263 251 249 244 237 232 229 225
87 85 73 67 61 53 57 71 74 75 83 82 64 67 74 66 65 72 85 89 82 79 74 64 71 83 95 100 78 72 76 79 80 82 83 82 75 65 44 25 6 342 324 311 325 323 304 303 288 275 262 257 271 298 327 339 357 34 49 44 36 35 36 45 213 213 206 203 168 171 225 72 63 54 45 31 9 338 299 281 254 246 247 245 241 232 223 221
87 76 69 69 58 47 55 73 78 77 74 64 59 61 62 67 72 91 121 120 93 94 95 72 64 79 105 115 82 76 85 87 84 81 77 73 72 69 52 18 1 0 358 344 359 359 329 307 290 286 275 261 268 292 298 309 335 86 82 47 42 47 26 7 315 314 304 220 182 184 216 89 68 51 43 36 21 4 329 291 245 238 242 241 238 227 211 209
85 73 75 77 64 58 75 88 90 90 85 77 61 46 50 83 124 126 151 158 105 103 113 74 59 73 97 122 122 99 95 93 93 87 71 58 61 61 50 31 9 3 8 5 9 357 331 322 306 295 278 262 265 292 289 270 265 147 69 34 31 23 5 351 305 334 359 12 147 201 213 136 67 37 33 33 23 22 5 305 242 226 228 227 227 221 209 203
92 84 86 85 75 82 102 98 96 97 91 75 49 44 53 90 117 100 113 135 90 96 118 75 59 72 82 113 167 135 108 106 108 103 74 41 35 23 19 28 14 4 8 3 356 346 341 341 326 316 298 276 270 293 274 249 260 343 358 359 0 358 355 349 303 353 36 21 355 332 228 204 30 14 18 29 26 28 28 2 246 217 218 220 220 216 212 205
107 97 85 89 97 114 114 104 106 109 97 75 58 51 47 55 65 62 59 65 74 91 115 78 57 76 86 100 154 147 130 129 124 128 109 32 17 342 325 337 343 349 360 352 338 337 337 328 323 332 326 284 283 317 321 302 306 320 327 332 336 347 359 2 351 360 13 339 327 309 292 307 320 345 2 15 19 20 26 33 125 207 214 219 219 216 214 210
139 121 93 94 106 112 119 121 147 159 143 106 70 54 42 43 48 58 66 65 66 78 110 113 87 184 137 118 127 116 127 163 191 198 247 339 343 341 339 335 329 336 346 332 317 317 311 297 299 296 278 281 293 304 311 311 309 307 311 318 320 325 345 352 347 351 343 325 306 282 313 325 320 346 3 1 360 0 7 42 69 104 206 210 212 212 214 214
161 148 121 116 100 82 101 108 93 153 172 155 89 68 62 62 69 90 83 73 72 66 93 132 273 328 57 54 61 83 112 200 238 254 288 313 322 347 357 349 344 349 350 336 321 310 299 288 284 283 281 285 293 301 303 299 296 298 302 307 311 310 314 323 326 324 328 323 297 269 314 337 342 360 5 355 350 347 346 24 63 58 97 189 199 202 208 213
143 155 146 136 96 69 59 48 55 103 126 143 140 115 86 72 87 92 86 92 104 79 62 67 30 6 15 19 20 42 105 234 245 257 279 298 301 305 331 342 343 345 346 338 324 309 296 287 280 277 276 275 278 289 299 290 284 288 297 303 303 300 301 304 298 297 311 309 287 286 315 337 352 6 6 357 349 342 341 345 1 45 69 113 185 197 203 209
79 146 150 135 104 94 68 36 91 145 135 144 160 146 101 72 93 97 97 113 111 75 56 59 48 24 358 350 353 5 266 272 339 321 312 323 325 309 314 330 328 326 335 341 335 316 296 279 276 275 275 276 276 280 291 291 282 280 284 296 301 296 296 294 288 292 298 288 283 295 311 322 346 4 358 355 350 335 332 330 313 349 78 83 129 178 196 204
49 120 147 265 119 134 168 266 76 125 141 154 169 170 136 70 111 120 117 109 93 75 59 52 47 37 24 7 345 325 299 298 265 292 302 310 317 313 313 318 314 317 332 342 340 326 315 301 284 282 285 283 279 281 281 280 281 276 270 273 286 296 298 295 292 297 295 287 285 290 296 300 302 310 318 321 323 309 304 312 315 297 106 84 93 128 172 193
58 79 88 54 100 125 144 350 19 54 108 119 149 232 273 308 142 163 143 100 83 76 66 52 33 11 10 14 356 331 315 297 258 239 263 281 283 287 289 292 297 305 320 329 321 314 315 309 297 300 300 288 284 293 287 277 279 275 266 266 276 293 307 304 300 303 302 299 294 290 302 313 294 257 287 298 290 284 287 297 308 295 231 119 91 100 124 160
59 65 68 63 85 96 72 33 26 33 60 68 70 283 341 37 113 145 141 109 87 86 81 52 17 342 340 347 352 340 326 306 275 264 278 286 278 280 299 310 309 304 299 295 292 291 296 299 301 304 298 287 288 299 300 298 292 273 262 264 273 286 303 301 292 285 291 302 300 298 317 320 294 268 272 286 289 287 284 289 298 291 266 258 79 94 98 110
Height
3154 3153 3152 3151 3151 3150 3149 3148 3147 3146 3146 3145 3144 3144 3144 3143 3143 3142 3142 3142 3142 3142 3142 3142 3142 3143 3143 3144 3144 3144 3145 3146 3147 3148 3148 3149 3149 3150 3151 3152 3152 3154 3155 3156 3158 3159 3161 3162 3164 3165 3166 3167 3169 3170 3170 3171 3170 3170 3171 3171 3172 3172 3172 3172 3172 3173 3173 3173 3174 3174 3175 3176 3178 3178 3178 3179 3180 3181 3183 3184 3185 3186 3187 3189 3189 3188 3188 3188
3152 3152 3151 3150 3149 3148 3148 3147 3146 3145 3145 3144 3143 3143 3142 3142 3141 3141 3140 3140 3140 3140 3141 3141 3141 3141 3142 3142 3143 3143 3144 3144 3145 3146 3147 3148 3148 3148 3150 3151 3152 3153 3154 3156 3157 3159 3160 3162 3163 3164 3165 3167 3168 3169 3169 3170 3170 3170 3171 3171 3172 3172 3172 3172 3173 3174 3173 3173 3174 3175 3175 3176 3177 3178 3178 3179 3179 3181 3182 3182 3184 3185 3186 3187 3188 3188 3188 3189
3151 3151 3150 3149 3148 3147 3146 3146 3145 3144 3144 3143 3142 3142 3141 3140 3140 3139 3139 3139 3139 3139 3139 3139 3139 3140 3140 3141 3141 3142 3142 3143 3144 3145 3146 3146 3147 3147 3149 3150 3151 3152 3153 3155 3156 3157 3159 3160 3162 3164 3165 3166 3167 3168 3168 3169 3169 3170 3170 3171 3172 3172 3172 3172 3173 3173 3173 3173 3174 3175 3176 3176 3177 3178 3178 3179 3179 3180 3181 3181 3182 3183 3184 3186 3186 3187 3188 3189
3150 3149 3148 3148 3147 3146 3145 3144 3144 3143 3143 3142 3141 3140 3140 3139 3138 3138 3137 3137 3137 3137 3137 3137 3137 3138 3139 3139 3140 3140 3141 3142 3142 3143 3144 3145 3146 3146 3148 3149 3150 3151 3152 3153 3154 3155 3156 3158 3160 3163 3164 3166 3167 3167 3167 3168 3168 3169 3170 3170 3172 3172 3172 3173 3173 3173 3173 3173 3174 3175 3176 3177 3178 3178 3177 3178 3178 3178 3180 3180 3181 3182 3183 3184 3186 3186 3188 3189
3149 3148 3147 3146 3145 3144 3143 3143 3142 3142 3141 3141 3140 3139 3138 3138 3137 3136 3136 3136 3136 3135 3135 3136 3136 3136 3137 3138 3138 3139 3140 3141 3140 3141 3142 3143 3144 3145 3147 3148 3149 3150 3151 3152 3153 3154 3155 3157 3158 3160 3163 3165 3165 3166 3166 3167 3168 3169 3169 3169 3171 3172 3173 3173 3174 3174 3174 3173 3174 3175 3176 3177 3178 3178 3177 3177 3178 3178 3179 3180 3181 3182 3183 3184 3185 3186 3188 3188
3148 3147 3146 3145 3144 3143 3142 3141 3141 3140 3140 3139 3139 3138 3137 3136 3136 3135 3135 3134 3134 3134 3134 3134 3134 3135 3136 3136 3137 3138 3139 3140 3139 3140 3141 3142 3143 3144 3146 3147 3148 3149 3150 3151 3152 3153 3155 3156 3157 3158 3161 3163 3164 3165 3166 3167 3168 3168 3168 3169 3170 3172 3173 3173 3174 3174 3174 3174 3174 3174 3175 3177 3177 3177 3177 3177 3178 3178 3179 3179 3180 3183 3184 3185 3186 3186 3188 3188
3147 3146 3145 3144 3143 3142 3141 3140 3139 3139 3138 3138 3137 3137 3136 3135 3134 3134 3133 3133 3133 3133 3133 3133 3133 3133 3134 3135 3136 3136 3137 3139 3139 3139 3139 3140 3141 3143 3144 3146 3147 3148 3149 3150 3151 3153 3154 3155 3157 3158 3160 3162 3164 3164 3165 3166 3167 3167 3167 3169 3170 3172 3173 3174 3174 3174 3174 3174 3174 3174 3174 3176 3176 3176 3177 3177 3177 3178 3179 3180 3181 3183 3184 3186 3186 3187 3188 3189
3146 3145 3144 3143 3142 3141 3140 3139 3138 3137 3137 3136 3135 3135 3135 3134 3133 3133 3132 3132 3131 3131 3131 3131 3131 3132 3133 3134 3134 3134 3135 3137 3138 3139 3139 3139 3140 3142 3143 3144 3146 3147 3149 3149 3151 3152 3153 3155 3157 3158 3159 3161 3163 3164 3166 3167 3167 3167 3167 3169 3171 3172 3173 3174 3175 3174 3174 3174 3174 3174 3174 3175 3176 3176 3177 3177 3177 3178 3180 3181 3181 3183 3185 3186 3186 3187 3188 3189
3145 3144 3143 3142 3141 3140 3139 3137 3136 3136 3135 3134 3134 3133 3133 3132 3132 3131 3131 3131 3130 3130 3130 3130 3130 3130 3132 3132 3132 3133 3134 3135 3137 3138 3138 3139 3140 3141 3142 3143 3145 3146 3147 3148 3150 3151 3152 3154 3157 3158 3159 3161 3163 3164 3166 3166 3166 3167 3169 3170 3171 3172 3172 3173 3174 3174 3174 3175 3175 3174 3175 3175 3176 3176 3177 3177 3178 3178 3179 3181 3182 3183 3185 3186 3187 3187 3187 3188
3143 3142 3141 3140 3139 3138 3137 3136 3135 3134 3133 3133 3132 3131 3131 3131 3130 3130 3130 3129 3129 3129 3128 3129 3129 3129 3130 3131 3131 3132 3132 3134 3136 3137 3137 3138 3138 3140 3141 3142 3143 3145 3146 3147 3148 3149 3152 3154 3156 3158 3159 3160 3161 3162 3164 3165 3165 3166 3168 3170 3171 3171 3171 3172 3172 3173 3174 3174 3175 3175 3175 3175 3175 3176 3176 3177 3178 3179 3179 3181 3183 3184 3185 3186 3186 3187 3188 3189
3142 3141 3140 3139 3138 3137 3136 3135 3134 3133 3132 3131 3130 3130 3129 3129 3129 3129 3128 3128 3128 3128 3127 3127 3128 3128 3129 3129 3130 3131 3131 3132 3134 3135 3136 3136 3137 3139 3140 3141 3142 3144 3145 3146 3147 3150 3152 3154 3156 3157 3158 3159 3160 3162 3163 3164 3165 3165 3166 3168 3169 3170 3169 3170 3172 3173 3173 3173 3174 3175 3175 3175 3175 3176 3176 3176 3178 3179 3179 3181 3183 3185 3186 3186 3186 3187 3188 3189
3140 3139 3138 3137 3136 3135 3134 3133 3132 3132 3131 3130 3129 3128 3127 3127 3127 3127 3127 3127 3126 3126 3126 3126 3126 3127 3127 3128 3129 3129 3130 3131 3132 3133 3135 3135 3136 3137 3139 3140 3141 3143 3144 3146 3147 3150 3152 3154 3155 3156 3157 3157 3159 3161 3161 3162 3163 3164 3165 3166 3168 3168 3168 3169 3171 3171 3172 3172 3172 3174 3175 3174 3174 3175 3176 3176 3177 3178 3179 3181 3183 3184 3185 3186 3187 3187 3188 3189
3138 3137 3136 3136 3135 3133 3132 3131 3131 3130 3129 3128 3127 3126 3126 3125 3125 3125 3125 3125 3125 3125 3125 3125 3125 3125 3127 3127 3128 3128 3129 3130 3130 3131 3133 3134 3135 3136 3137 3139 3140 3142 3144 3146 3148 3150 3152 3154 3154 3155 3156 3156 3157 3158 3158 3160 3161 3162 3164 3164 3166 3167 3167 3168 3170 3170 3171 3170 3171 3173 3174 3174 3174 3174 3175 3175 3176 3177 3178 3180 3181 3182 3184 3186 3186 3186 3187 3188
3137 3136 3135 3134 3133 3131 3130 3130 3129 3128 3128 3127 3126 3125 3124 3124 3124 3124 3124 3124 3124 3123 3123 3124 3124 3125 3126 3126 3127 3127 3128 3128 3130 3130 3131 3133 3134 3135 3136 3138 3139 3141 3143 3145 3147 3149 3151 3152 3153 3154 3154 3155 3156 3156 3157 3159 3160 3161 3162 3162 3164 3165 3166 3167 3168 3169 3169 3169 3170 3172 3173 3172 3173 3173 3174 3175 3175 3175 3176 3178 3179 3181 3183 3184 3185 3186 3187 3188
3136 3135 3134 3132 3131 3130 3129 3128 3127 3126 3126 3125 3124 3124 3123 3122 3122 3122 3122 3122 3122 3122 3122 3122 3123 3124 3125 3126 3126 3126 3127 3127 3128 3129 3130 3131 3132 3134 3135 3137 3138 3140 3142 3144 3146 3148 3150 3150 3151 3152 3152 3153 3155 3156 3157 3157 3158 3159 3160 3161 3162 3163 3165 3166 3167 3167 3168 3169 3170 3171 3171 3171 3171 3172 3172 3174 3175 3175 3176 3176 3178 3180 3182 3183 3184 3185 3186 3188
3134 3133 3132 3131 3129 3128 3127 3126 3125 3124 3124 3123 3123 3122 3121 3121 3121 3121 3121 3121 3121 3121 3121 3121 3122 3123 3124 3125 3125 3125 3126 3126 3127 3128 3129 3130 3131 3132 3133 3135 3137 3139 3140 3143 3145 3147 3149 3149 3149 3150 3151 3153 3154 3155 3156 3156 3157 3158 3159 3159 3160 3161 3163 3165 3165 3166 3167 3169 3169 3170 3170 3169 3170 3171 3172 3173 3174 3175 3176 3177 3178 3180 3181 3182 3184 3184 3185 3187
3133 3132 3131 3129 3128 3127 3126 3124 3124 3123 3122 3122 3121 3120 3120 3120 3120 3119 3119 3119 3119 3119 3120 3121 3121 3122 3123 3123 3124 3125 3125 3126 3127 3127 3128 3129 3130 3131 3132 3133 3136 3138 3139 3141 3144 3146 3147 3148 3148 3150 3150 3152 3153 3155 3155 3155 3155 3157 3158 3158 3159 3160 3162 3162 3163 3165 3166 3167 3167 3168 3169 3169 3169 3170 3170 3172 3173 3174 3175 3176 3177 3179 3180 3182 3183 3184 3185 3186
3132 3131 3129 3128 3127 3126 3124 3123 3122 3121 3120 3120 3119 3119 3119 3118 3118 3118 3118 3118 3118 3118 3119 3119 3119 3121 3122 3123 3124 3125 3125 3126 3127 3127 3128 3128 3129 3130 3131 3133 3135 3137 3138 3140 3142 3144 3146 3147 3148 3149 3150 3150 3151 3152 3153 3153 3155 3156 3157 3157 3158 3159 3160 3160 3161 3164 3165 3165 3166 3167 3167 3168 3169 3169 3169 3170 3171 3172 3174 3175 3176 3178 3179 3180 3182 3183 3184 3185
3130 3129 3128 3127 3125 3124 3123 3122 3121 3120 3119 3118 3117 3117 3117 3116 3116 3117 3117 3117 3117 3117 3118 3118 3118 3119 3120 3121 3123 3124 3125 3126 3127 3127 3127 3127 3128 3129 3131 3132 3134 3136 3137 3139 3141 3142 3144 3146 3147 3147 3148 3148 3149 3150 3151 3153 3155 3156 3157 3157 3158 3158 3158 3157 3160 3163 3164 3164 3165 3165 3165 3166 3167 3167 3168 3169 3170 3171 3172 3173 3175 3177 3178 3179 3180 3181 3183 3184
3129 3128 3127 3125 3124 3123 3122 3120 3119 3118 3117 3117 3116 3115 3115 3114 3115 3115 3115 3116 3116 3116 3116 3117 3117 3117 3118 3119 3121 3123 3124 3125 3126 3127 3127 3127 3128 3129 3130 3132 3133 3134 3136 3138 3140 3142 3143 3144 3144 3144 3146 3147 3149 3151 3152 3154 3155 3156 3157 3157 3157 3156 3155 3154 3158 3162 3163 3162 3161 3161 3163 3163 3164 3165 3166 3167 3168 3169 3170 3170 3172 3173 3175 3177 3178 3180 3181 3183
3127 3126 3125 3124 3122 3121 3120 3119 3118 3117 3116 3115 3115 3114 3113 3113 3113 3113 3114 3114 3114 3115 3115 3116 3116 3117 3118 3118 3119 3122 3124 3124 3125 3126 3126 3127 3128 3129 3130 3131 3132 3133 3135 3137 3140 3141 3142 3142 3142 3144 3146 3148 3150 3151 3153 3154 3154 3155 3156 3156 3156 3155 3152 3152 3155 3159 3161 3160 3158 3159 3160 3160 3161 3163 3164 3165 3166 3166 3167 3168 3169 3170 3173 3175 3177 3178 3180 3182
3126 3125 3124 3123 3121 3120 3119 3118 3116 3115 3114 3114 3113 3113 3112 3111 3111 3112 3112 3112 3113 3114 3114 3115 3116 3116 3117 3117 3118 3121 3123 3124 3124 3125 3125 3126 3127 3128 3129 3130 3132 3133 3135 3136 3138 3140 3140 3140 3141 3144 3146 3147 3149 3150 3152 3153 3154 3154 3155 3156 3155 3153 3152 3151 3152 3156 3159 3159 3156 3156 3157 3157 3158 3160 3162 3163 3163 3164 3165 3167 3168 3169 3170 3173 3175 3176 3178 3181
3125 3123 3122 3121 3120 3118 3117 3116 3115 3114 3113 3112 3111 3111 3110 3110 3110 3110 3110 3111 3112 3112 3113 3114 3115 3116 3117 3117 3118 3120 3121 3123 3123 3124 3125 3126 3127 3128 3129 3130 3132 3133 3134 3135 3136 3137 3138 3139 3141 3143 3145 3146 3147 3149 3150 3151 3152 3152 3153 3154 3152 3151 3151 3149 3150 3154 3156 3157 3155 3154 3155 3156 3158 3161 3161 3162 3163 3164 3165 3167 3168 3169 3169 3171 3173 3175 3176 3178
3124 3122 3120 3119 3119 3117 3116 3115 3114 3112 3112 3110 3110 3109 3109 3109 3109 3109 3109 3109 3110 3111 3112 3113 3114 3115 3115 3116 3118 3119 3120 3122 3122 3123 3124 3126 3126 3127 3128 3130 3131 3132 3134 3135 3136 3137 3137 3138 3140 3142 3144 3145 3145 3147 3148 3149 3150 3150 3151 3151 3150 3149 3150 3149 3150 3152 3152 3152 3151 3152 3156 3158 3159 3160 3160 3161 3163 3164 3165 3166 3167 3168 3169 3171 3172 3174 3175 3177
3122 3120 3118 3117 3117 3116 3114 3113 3112 3111 3110 3109 3109 3109 3109 3108 3108 3108 3108 3108 3109 3109 3110 3111 3113 3114 3114 3116 3117 3118 3120 3121 3122 3122 3124 3125 3126 3127 3128 3129 3130 3131 3133 3134 3136 3137 3137 3138 3139 3141 3142 3143 3144 3145 3146 3147 3148 3148 3148 3148 3148 3148 3149 3149 3150 3152 3150 3150 3149 3150 3156 3158 3158 3158 3158 3160 3161 3162 3164 3164 3165 3167 3168 3169 3170 3172 3173 3175
3121 3119 3117 3116 3115 3114 3112 3111 3111 3109 3109 3109 3109 3109 3109 3108 3108 3108 3108 3108 3108 3108 3109 3111 3112 3113 3114 3115 3116 3117 3119 3120 3121 3122 3123 3125 3125 3126 3127 3128 3129 3130 3132 3134 3134 3135 3136 3137 3138 3139 3141 3142 3143 3143 3144 3146 3147 3146 3145 3146 3147 3148 3148 3148 3150 3150 3149 3150 3152 3151 3154 3157 3158 3158 3158 3159 3159 3160 3162 3163 3163 3165 3165 3166 3167 3169 3171 3173
3120 3118 3116 3114 3113 3112 3111 3110 3109 3108 3107 3108 3109 3109 3108 3108 3107 3108 3108 3108 3108 3108 3109 3111 3112 3113 3114 3115 3116 3117 3119 3119 3120 3122 3123 3124 3125 3125 3126 3127 3128 3129 3130 3131 3132 3133 3134 3135 3137 3138 3140 3140 3141 3142 3142 3144 3145 3144 3143 3145 3146 3146 3147 3147 3148 3148 3147 3149 3152 3153 3154 3155 3156 3156 3156 3158 3158 3159 3161 3161 3162 3162 3163 3163 3164 3166 3168 3170
3118 3117 3115 3112 3111 3110 3109 3108 3108 3107 3106 3107 3108 3108 3107 3107 3107 3108 3108 3109 3109 3108 3110 3111 3112 3113 3114 3115 3116 3117 3118 3119 3120 3122 3123 3124 3124 3124 3125 3126 3127 3127 3128 3128 3129 3130 3132 3133 3134 3136 3137 3138 3139 3140 3141 3142 3143 3142 3142 3143 3145 3145 3145 3146 3146 3145 3145 3145 3147 3150 3152 3153 3153 3152 3154 3157 3158 3158 3158 3157 3158 3159 3160 3161 3162 3164 3166 3168
3117 3115 3113 3111 3109 3108 3107 3107 3106 3106 3106 3106 3106 3106 3106 3107 3108 3108 3108 3109 3110 3109 3110 3112 3113 3114 3114 3115 3116 3117 3118 3119 3120 3121 3122 3123 3123 3123 3124 3125 3126 3126 3127 3127 3127 3128 3129 3130 3131 3133 3134 3136 3137 3138 3140 3141 3141 3142 3142 3142 3144 3145 3144 3144 3145 3144 3144 3143 3142 3145 3148 3149 3149 3148 3151 3155 3155 3154 3154 3153 3154 3157 3158 3159 3161 3162 3165 3166
3115 3113 3111 3109 3107 3106 3106 3105 3105 3104 3105 3105 3105 3106 3106 3107 3108 3108 3108 3109 3110 3110 3111 3112 3113 3114 3115 3115 3116 3117 3118 3119 3120 3121 3122 3122 3123 3123 3124 3125 3125 3125 3126 3126 3126 3126 3128 3129 3130 3131 3132 3134 3135 3136 3138 3139 3140 3142 3142 3142 3142 3144 3144 3144 3143 3143 3144 3142 3141 3143 3145 3145 3146 3146 3147 3149 3149 3149 3149 3150 3152 3155 3157 3159 3160 3161 3163 3164
3113 3111 3109 3107 3106 3104 3104 3104 3103 3104 3104 3104 3105 3105 3106 3107 3108 3108 3108 3109 3110 3111 3112 3112 3114 3114 3115 3115 3116 3116 3117 3118 3120 3121 3122 3122 3123 3123 3123 3124 3124 3124 3124 3125 3125 3125 3126 3129 3130 3131 3132 3133 3133 3134 3135 3137 3139 3141 3141 3141 3141 3142 3142 3143 3143 3143 3144 3141 3140 3142 3143 3143 3144 3144 3144 3144 3144 3146 3146 3147 3150 3153 3155 3156 3157 3159 3161 3162
3112 3109 3107 3105 3104 3103 3103 3103 3103 3103 3103 3104 3105 3105 3106 3107 3108 3108 3108 3109 3111 3112 3112 3113 3114 3114 3115 3115 3115 3116 3117 3119 3120 3120 3121 3122 3122 3122 3122 3123 3123 3123 3123 3124 3124 3123 3123 3127 3129 3130 3131 3132 3132 3132 3133 3135 3136 3138 3139 3139 3140 3140 3141 3143 3142 3142 3142 3140 3139 3141 3142 3142 3142 3142 3143 3143 3144 3145 3146 3147 3149 3151 3154 3155 3156 3157 3159 3161
3110 3107 3105 3104 3103 3102 3102 3103 3103 3103 3103 3104 3105 3106 3107 3107 3108 3110 3110 3109 3111 3112 3113 3113 3113 3114 3115 3115 3115 3116 3117 3118 3119 3120 3121 3122 3121 3121 3122 3122 3122 3122 3123 3123 3124 3123 3123 3125 3127 3128 3129 3130 3130 3131 3132 3134 3134 3136 3137 3137 3138 3139 3141 3143 3142 3142 3141 3138 3138 3140 3142 3141 3140 3141 3142 3142 3143 3145 3147 3148 3150 3151 3152 3154 3155 3156 3157 3158
3108 3106 3104 3103 3102 3102 3102 3103 3103 3103 3104 3105 3107 3107 3107 3108 3109 3110 3110 3109 3110 3112 3112 3112 3112 3113 3114 3115 3115 3116 3117 3118 3119 3120 3119 3120 3121 3121 3120 3121 3122 3123 3123 3123 3124 3124 3124 3124 3125 3126 3127 3127 3128 3129 3130 3131 3133 3134 3135 3136 3137 3138 3139 3141 3141 3141 3141 3139 3137 3138 3140 3140 3139 3139 3141 3142 3143 3145 3146 3147 3149 3149 3149 3151 3154 3155 3156 3157
3107 3106 3104 3103 3103 3103 3103 3103 3104 3104 3105 3107 3108 3106 3106 3109 3110 3110 3110 3111 3111 3111 3112 3112 3112 3112 3114 3115 3115 3116 3116 3117 3119 3119 3118 3119 3121 3120 3121 3121 3122 3122 3122 3123 3124 3124 3124 3124 3124 3125 3126 3126 3127 3128 3128 3130 3132 3133 3134 3135 3136 3137 3138 3139 3139 3139 3140 3140 3139 3138 3138 3138 3138 3138 3139 3141 3142 3143 3145 3146 3147 3147 3147 3149 3151 3153 3154 3155
3107 3106 3105 3104 3104 3104 3104 3104 3105 3106 3107 3108 3107 3107 3109 3111 3112 3111 3112 3112 3112 3112 3112 3111 3112 3112 3113 3115 3115 3116 3116 3117 3119 3119 3118 3119 3120 3121 3122 3122 3122 3122 3122 3123 3124 3124 3123 3122 3123 3124 3126 3127 3127 3128 3129 3129 3130 3132 3133 3134 3135 3137 3138 3138 3139 3139 3140 3142 3141 3139 3138 3138 3138 3137 3137 3139 3139 3140 3141 3143 3144 3145 3145 3146 3148 3150 3151 3152
3108 3107 3106 3106 3105 3105 3106 3107 3108 3108 3108 3107 3107 3109 3112 3113 3113 3113 3112 3112 3113 3113 3112 3112 3113 3113 3113 3114 3115 3115 3116 3117 3118 3118 3119 3120 3120 3123 3124 3123 3124 3123 3122 3123 3124 3125 3124 3121 3121 3123 3125 3126 3126 3127 3128 3128 3130 3132 3133 3133 3134 3135 3136 3137 3138 3138 3140 3142 3141 3139 3139 3140 3139 3138 3137 3137 3137 3138 3139 3139 3140 3141 3142 3143 3144 3146 3148 3150
3109 3108 3107 3107 3107 3107 3108 3109 3110 3109 3108 3108 3109 3111 3113 3113 3114 3114 3113 3113 3113 3114 3114 3114 3114 3114 3113 3114 3115 3116 3116 3117 3117 3118 3119 3119 3121 3124 3124 3123 3124 3124 3123 3124 3124 3125 3124 3121 3120 3122 3123 3125 3125 3125 3126 3127 3129 3131 3132 3132 3133 3133 3134 3135 3137 3138 3140 3141 3140 3139 3139 3140 3141 3139 3138 3137 3137 3136 3137 3136 3136 3136 3137 3138 3141 3143 3145 3147
3110 3109 3109 3109 3109 3110 3110 3111 3110 3110 3109 3109 3111 3113 3113 3114 3114 3114 3114 3114 3114 3114 3115 3115 3115 3114 3114 3115 3115 3116 3116 3116 3117 3118 3118 3120 3122 3124 3123 3123 3124 3124 3124 3124 3125 3125 3125 3123 3120 3119 3122 3125 3125 3125 3125 3126 3128 3129 3129 3130 3131 3132 3133 3134 3135 3136 3138 3139 3140 3139 3139 3140 3141 3140 3137 3135 3133 3132 3130 3130 3132 3132 3133 3135 3138 3140 3142 3144
3110 3110 3111 3111 3111 3112 3112 3111 3111 3110 3110 3111 3113 3114 3114 3114 3115 3115 3115 3115 3114 3115 3116 3115 3115 3114 3115 3116 3116 3116 3117 3117 3117 3117 3118 3120 3123 3124 3123 3123 3123 3124 3123 3124 3125 3125 3125 3125 3121 3118 3120 3124 3126 3127 3127 3128 3129 3130 3129 3129 3130 3131 3131 3132 3134 3134 3136 3136 3138 3139 3138 3138 3140 3138 3135 3133 3131 3129 3127 3127 3128 3128 3128 3132 3136 3138 3140 3141
3112 3112 3112 3112 3112 3112 3113 3112 3111 3112 3112 3113 3114 3114 3114 3115 3116 3116 3116 3115 3114 3115 3115 3115 3114 3115 3116 3117 3117 3118 3117 3117 3117 3118 3120 3122 3124 3124 3124 3124 3123 3124 3123 3123 3124 3124 3125 3125 3122 3118 3119 3121 3125 3128 3129 3130 3132 3133 3133 3132 3132 3132 3132 3132 3132 3132 3133 3133 3134 3135 3134 3136 3138 3138 3135 3132 3129 3127 3125 3124 3125 3124 3125 3129 3133 3135 3137 3139
3114 3113 3113 3113 3112 3112 3113 3112 3112 3113 3113 3114 3114 3114 3114 3115 3116 3116 3116 3115 3115 3115 3115 3114 3114 3115 3116 3117 3118 3118 3117 3118 3118 3119 3121 3123 3124 3125 3126 3125 3124 3124 3124 3124 3125 3125 3125 3125 3122 3120 3118 3119 3123 3127 3128 3130 3132 3133 3133 3133 3133 3133 3133 3134 3133 3131 3131 3131 3131 3132 3131 3132 3135 3135 3132 3130 3128 3126 3123 3121 3120 3120 3122 3126 3130 3133 3135 3138
3115 3114 3114 3113 3112 3113 3113 3113 3113 3114 3114 3114 3114 3114 3114 3115 3115 3116 3116 3115 3115 3115 3115 3115 3115 3116 3116 3117 3118 3118 3118 3120 3121 3121 3122 3123 3123 3125 3126 3125 3123 3124 3124 3125 3126 3127 3127 3126 3124 3121 3117 3116 3121 3126 3127 3128 3130 3131 3132 3132 3133 3134 3134 3134 3134 3132 3132 3131 3131 3131 3129 3128 3130 3131 3130 3128 3128 3126 3122 3119 3116 3117 3119 3123 3127 3131 3133 3136
3116 3115 3114 3114 3113 3113 3114 3114 3115 3114 3115 3114 3114 3114 3115 3115 3115 3116 3116 3115 3116 3116 3116 3115 3116 3116 3117 3117 3117 3118 3119 3121 3122 3122 3123 3122 3123 3124 3125 3124 3123 3123 3124 3125 3126 3127 3127 3128 3127 3125 3121 3117 3119 3124 3126 3126 3127 3130 3132 3133 3133 3134 3133 3132 3132 3132 3132 3131 3132 3132 3129 3126 3127 3129 3129 3127 3125 3125 3123 3119 3116 3116 3118 3120 3123 3128 3133 3136
3117 3115 3115 3115 3115 3114 3114 3115 3116 3116 3115 3115 3115 3115 3115 3115 3115 3116 3116 3116 3116 3116 3116 3116 3116 3117 3117 3117 3118 3119 3120 3121 3122 3122 3123 3123 3123 3123 3124 3124 3123 3123 3124 3125 3126 3127 3128 3129 3129 3130 3129 3125 3122 3125 3128 3128 3127 3129 3131 3133 3133 3134 3133 3132 3131 3131 3131 3131 3130 3130 3128 3126 3128 3129 3128 3126 3125 3124 3123 3120 3116 3115 3117 3119 3123 3127 3131 3134
3117 3116 3116 3116 3116 3115 3115 3116 3116 3116 3116 3115 3115 3116 3116 3116 3116 3116 3117 3117 3117 3116 3116 3116 3117 3117 3117 3117 3118 3119 3120 3121 3121 3122 3122 3123 3123 3123 3123 3123 3123 3123 3124 3125 3125 3126 3127 3128 3129 3130 3130 3129 3127 3127 3130 3130 3129 3129 3131 3132 3133 3133 3133 3133 3132 3131 3131 3130 3128 3128 3128 3127 3128 3128 3127 3126 3125 3124 3124 3121 3117 3116 3116 3118 3121 3124 3126 3129
3117 3117 3117 3117 3117 3116 3116 3116 3116 3116 3116 3116 3116 3116 3115 3115 3116 3116 3116 3117 3117 3116 3116 3116 3117 3117 3117 3118 3118 3119 3120 3121 3121 3121 3122 3123 3123 3124 3124 3123 3123 3123 3124 3124 3124 3125 3126 3127 3128 3129 3129 3128 3127 3127 3128 3129 3128 3128 3130 3131 3132 3132 3132 3132 3131 3130 3131 3130 3126 3125 3127 3128 3128 3128 3127 3126 3125 3124 3124 3123 3120 3118 3117 3117 3118 3120 3123 3127
3117 3118 3118 3118 3118 3117 3116 3116 3116 3116 3116 3116 3116 3116 3115 3115 3116 3116 3116 3117 3117 3116 3116 3117 3118 3118 3118 3118 3118 3119 3120 3120 3120 3121 3121 3121 3122 3122 3122 3122 3122 3123 3123 3123 3123 3124 3126 3126 3127 3127 3127 3127 3126 3126 3126 3126 3125 3124 3127 3130 3130 3130 3130 3130 3129 3129 3130 3129 3126 3124 3126 3128 3129 3128 3127 3126 3125 3124 3124 3125 3124 3123 3120 3118 3117 3118 3121 3124
3118 3118 3119 3119 3119 3118 3117 3117 3117 3117 3117 3117 3116 3116 3116 3116 3117 3117 3117 3117 3117 3117 3117 3118 3119 3119 3119 3119 3119 3119 3120 3121 3121 3121 3121 3121 3121 3121 3122 3122 3122 3123 3123 3124 3124 3125 3126 3126 3126 3125 3125 3125 3126 3125 3125 3124 3122 3120 3122 3126 3128 3127 3128 3128 3127 3127 3127 3126 3125 3125 3125 3127 3129 3128 3126 3125 3125 3125 3125 3125 3126 3125 3121 3118 3117 3117 3119 3121
3119 3119 3119 3119 3119 3119 3118 3117 3117 3118 3118 3117 3117 3117 3117 3117 3118 3118 3118 3119 3119 3119 3119 3119 3120 3120 3120 3120 3120 3121 3121 3122 3123 3122 3122 3122 3122 3122 3123 3123 3123 3123 3124 3124 3125 3125 3126 3126 3126 3124 3123 3123 3124 3125 3124 3123 3121 3117 3116 3120 3125 3126 3126 3125 3125 3125 3124 3123 3123 3123 3123 3124 3127 3127 3124 3123 3124 3125 3124 3124 3126 3126 3122 3119 3118 3117 3118 3120
3120 3120 3120 3120 3119 3119 3119 3118 3118 3118 3118 3118 3118 3117 3117 3118 3118 3119 3119 3120 3120 3120 3121 3121 3122 3121 3121 3121 3122 3122 3123 3123 3123 3123 3123 3123 3123 3123 3123 3123 3123 3123 3124 3125 3125 3125 3126 3126 3125 3124 3123 3122 3123 3124 3122 3122 3120 3116 3113 3116 3121 3123 3124 3124 3123 3123 3122 3120 3119 3120 3119 3120 3123 3125 3123 3121 3122 3123 3122 3122 3123 3124 3123 3120 3118 3117 3118 3119
3121 3121 3121 3120 3120 3120 3120 3119 3119 3118 3118 3118 3118 3117 3117 3118 3118 3119 3120 3120 3120 3121 3122 3122 3122 3122 3121 3122 3122 3122 3122 3122 3122 3122 3122 3122 3122 3123 3123 3123 3123 3123 3123 3124 3124 3124 3124 3124 3124 3124 3122 3121 3122 3123 3121 3121 3119 3114 3112 3116 3118 3119 3121 3121 3120 3121 3120 3119 3117 3117 3117 3118 3120 3122 3122 3120 3119 3121 3121 3120 3121 3122 3122 3121 3119 3118 3118 3119